Location: Cahoon Acres
(40.8736°N, 111.8994°W)
Time: 10:28:39
(UTC+00:00)

SR - Pass Details

Date: 09 June 2020
Orbit: 583 x 872 km, 66.7° (Epoch: 03 July)

Event Time Altitude Azimuth Distance (km) Brightness Sun altitude
Rises 19:22:43 0° 189° (S) 3,301 ? 72.1°
Reaches altitude 10° 19:25:19 10° 183° (S) 2,331 ? 72.1°
Maximum altitude 19:30:18 41° 114° (ESE) 1,058 ? 72.1°
Drops below altitude 10° 19:34:56 10° 44° (NE) 2,163 ? 72.1°
Sets 19:37:16 0° 37° (NE) 3,037 ? 72.0°
